Weather reports worldwide

Advertisment
South Newington, United Kingdom (99166): temperature & dewpoint: 18.08.2017 00:00:00 - 24.08.2017 00:00:00 (BST)South Newington, United Kingdom (99166): temperature -20cm & temperature -100cm: 18.08.2017 00:00:00 - 24.08.2017 00:00:00 (BST)South Newington, United Kingdom (99166): precipitation: 18.08.2017 00:00:00 - 24.08.2017 00:00:00 (BST)
Date & Time tt [°C] td [°C] tt -20cm [°C] tt -100cm [°C] rr [mm]
24.08.2017 00:00:00 - - - - -
23.08.2017 23:00:00 11,9 10,6 - - 0,0
23.08.2017 22:00:00 13,1 11,8 - - 0,0
23.08.2017 21:00:00 14,7 12,0 - - 0,0
23.08.2017 20:00:00 17,2 12,2 - - 0,0
23.08.2017 19:00:00 19,1 13,1 - - 0,0
23.08.2017 18:00:00 19,7 13,3 - - 0,0
23.08.2017 17:00:00 20,1 13,1 - - 0,0
23.08.2017 16:00:00 20,9 12,6 - - 0,0
23.08.2017 15:00:00 20,8 14,0 - - 0,0
23.08.2017 14:00:00 20,0 14,3 - - 0,0
23.08.2017 13:00:00 20,5 15,6 - - 0,0
23.08.2017 12:00:00 19,6 16,5 - - 0,0
23.08.2017 11:00:00 18,2 16,5 - - 0,0
23.08.2017 10:00:00 17,9 17,1 18,7 16,5 0,0
23.08.2017 09:00:00 16,8 16,8 - - 0,0
23.08.2017 08:00:00 15,4 15,3 - - 0,0
23.08.2017 07:00:00 14,8 14,6 - - 0,0
23.08.2017 06:00:00 13,8 13,6 - - 0,0
23.08.2017 05:00:00 13,2 13,0 - - 0,0
23.08.2017 04:00:00 12,6 12,2 - - 0,0
23.08.2017 03:00:00 13,3 12,8 - - 0,0
23.08.2017 02:00:00 13,7 12,9 - - 0,0
23.08.2017 01:00:00 15,5 14,3 - - 0,0
23.08.2017 00:00:00 16,1 14,5 - - 0,0
22.08.2017 23:00:00 17,6 15,1 - - 0,0
22.08.2017 22:00:00 18,5 15,9 - - 0,0
22.08.2017 21:00:00 19,5 16,6 - - 0,0
22.08.2017 20:00:00 20,2 16,7 - - 0,0
22.08.2017 19:00:00 21,0 17,1 - - 0,0
22.08.2017 18:00:00 21,1 17,3 - - 0,0
22.08.2017 17:00:00 21,3 17,4 - - 0,0
22.08.2017 16:00:00 21,3 17,7 - - 0,0
22.08.2017 15:00:00 21,2 17,3 - - 0,0
22.08.2017 14:00:00 21,5 17,4 - - 0,0
22.08.2017 13:00:00 21,0 17,4 - - 0,0
22.08.2017 12:00:00 20,5 17,8 - - 0,0
22.08.2017 11:00:00 19,1 18,1 - - 0,0
22.08.2017 10:00:00 18,2 18,0 18,2 16,5 0,0
22.08.2017 09:00:00 17,5 17,4 - - 0,0
22.08.2017 08:00:00 17,2 17,1 - - 0,0
22.08.2017 07:00:00 17,1 17,1 - - 0,0
22.08.2017 06:00:00 16,9 16,8 - - 0,2
22.08.2017 05:00:00 17,0 16,8 - - 0,0
22.08.2017 04:00:00 17,0 16,9 - - 0,0
22.08.2017 03:00:00 17,1 16,9 - - 0,0
22.08.2017 02:00:00 17,0 16,8 - - 0,0
22.08.2017 01:00:00 15,8 15,6 - - 0,0
22.08.2017 00:00:00 15,2 14,6 - - 0,0
21.08.2017 23:00:00 16,1 15,4 - - 0,0
21.08.2017 22:00:00 17,5 16,5 - - 0,0
21.08.2017 21:00:00 18,1 16,6 - - 0,0
21.08.2017 20:00:00 18,5 16,5 - - 0,0
21.08.2017 19:00:00 19,2 16,4 - - 0,0
21.08.2017 18:00:00 19,2 16,4 - - 0,0
21.08.2017 17:00:00 18,3 15,9 - - 0,0
21.08.2017 16:00:00 18,0 15,7 - - 0,0
21.08.2017 15:00:00 17,9 15,5 - - 0,0
21.08.2017 14:00:00 17,6 15,3 - - 0,0
21.08.2017 13:00:00 17,4 15,0 - - 0,0
21.08.2017 12:00:00 16,9 15,5 - - 0,0
21.08.2017 11:00:00 15,7 14,6 - - 0,0
21.08.2017 10:00:00 15,1 14,6 18,0 16,5 0,0
21.08.2017 09:00:00 14,4 14,2 - - 0,0
21.08.2017 08:00:00 14,0 13,8 - - 0,0
21.08.2017 07:00:00 13,6 13,4 - - 0,0
21.08.2017 06:00:00 13,3 13,1 - - 0,2
21.08.2017 05:00:00 13,3 13,1 - - 0,2
21.08.2017 04:00:00 13,3 13,0 - - 0,2
21.08.2017 03:00:00 13,3 12,9 - - 0,0
21.08.2017 02:00:00 13,3 12,9 - - 0,0
21.08.2017 01:00:00 13,2 12,9 - - 0,0
21.08.2017 00:00:00 13,1 12,7 - - 1,4
20.08.2017 23:00:00 13,1 12,7 - - 1,4
20.08.2017 22:00:00 13,2 12,8 - - 2,2
20.08.2017 21:00:00 13,1 12,4 - - 1,8
20.08.2017 20:00:00 13,4 12,3 - - 1,4
20.08.2017 19:00:00 15,0 12,1 - - 0,4
20.08.2017 18:00:00 16,7 11,4 - - 0,0
20.08.2017 17:00:00 17,7 10,4 - - 0,0
20.08.2017 16:00:00 18,6 9,9 - - 0,0
20.08.2017 15:00:00 19,3 9,5 - - 0,0
20.08.2017 14:00:00 19,2 9,9 - - 0,0
20.08.2017 13:00:00 18,5 9,1 - - 0,0
20.08.2017 12:00:00 17,7 9,4 - - 0,0
20.08.2017 11:00:00 16,7 10,0 - - 0,0
20.08.2017 10:00:00 16,4 10,9 18,0 16,5 0,0
20.08.2017 09:00:00 14,8 10,9 - - 0,0
20.08.2017 08:00:00 11,6 11,3 - - 0,0
20.08.2017 07:00:00 8,0 7,9 - - 0,0
20.08.2017 06:00:00 7,2 6,9 - - 0,0
20.08.2017 05:00:00 7,1 6,6 - - 0,0
20.08.2017 04:00:00 8,2 7,4 - - 0,0
20.08.2017 03:00:00 9,8 8,4 - - 0,0
20.08.2017 02:00:00 11,6 8,9 - - 0,0
20.08.2017 01:00:00 12,5 9,9 - - 0,0
20.08.2017 00:00:00 9,8 9,0 - - 0,0
19.08.2017 23:00:00 10,3 8,6 - - 0,0
19.08.2017 22:00:00 13,2 9,4 - - 0,0
19.08.2017 21:00:00 14,1 9,5 - - 0,0
19.08.2017 20:00:00 15,1 8,8 - - 0,0
19.08.2017 19:00:00 16,1 8,7 - - 0,0
19.08.2017 18:00:00 16,9 8,2 - - 0,0
19.08.2017 17:00:00 17,2 8,0 - - 0,0
19.08.2017 16:00:00 17,7 9,4 - - 0,0
19.08.2017 15:00:00 17,1 8,5 - - 0,0
19.08.2017 14:00:00 17,0 11,0 - - 0,0
19.08.2017 13:00:00 15,3 10,4 - - 0,2
19.08.2017 12:00:00 16,0 9,1 - - 0,0
19.08.2017 11:00:00 16,8 10,6 - - 0,0
19.08.2017 10:00:00 15,7 10,3 18,4 16,4 0,0
19.08.2017 09:00:00 15,0 10,5 - - 0,0
19.08.2017 08:00:00 13,4 10,7 - - 0,0
19.08.2017 07:00:00 11,4 10,1 - - 0,0
19.08.2017 06:00:00 11,1 10,7 - - 0,0
19.08.2017 05:00:00 10,3 10,0 - - 0,2
19.08.2017 04:00:00 10,7 10,4 - - 0,0
19.08.2017 03:00:00 10,1 9,7 - - 0,0
19.08.2017 02:00:00 10,5 9,4 - - 0,0
19.08.2017 01:00:00 12,1 10,7 - - 0,0
19.08.2017 00:00:00 12,5 11,8 - - 1,8
18.08.2017 23:00:00 12,6 11,9 - - 0,6
18.08.2017 22:00:00 12,3 11,2 - - 0,8
18.08.2017 21:00:00 12,1 10,7 - - 0,8
18.08.2017 20:00:00 13,8 9,4 - - 0,0
18.08.2017 19:00:00 14,6 9,6 - - 0,0
18.08.2017 18:00:00 15,1 8,9 - - 0,0
18.08.2017 17:00:00 15,2 11,9 - - 0,4
18.08.2017 16:00:00 13,6 10,8 - - 1,0
18.08.2017 15:00:00 15,8 9,0 - - 0,0
18.08.2017 14:00:00 18,8 9,3 - - 0,2
18.08.2017 13:00:00 16,6 11,5 - - 0,0
18.08.2017 12:00:00 17,7 11,1 - - 0,0
18.08.2017 11:00:00 17,2 9,7 - - 0,0
18.08.2017 10:00:00 16,4 9,5 18,7 16,4 0,0
18.08.2017 09:00:00 15,5 11,4 - - 0,0
18.08.2017 08:00:00 14,6 12,7 - - 0,0
18.08.2017 07:00:00 13,9 12,9 - - 0,0
18.08.2017 06:00:00 14,0 13,2 - - 0,0
18.08.2017 05:00:00 14,1 13,5 - - 0,0
18.08.2017 04:00:00 13,1 12,0 - - 0,0
18.08.2017 03:00:00 14,0 13,1 - - 1,0
18.08.2017 02:00:00 14,9 13,8 - - 1,4
18.08.2017 01:00:00 15,9 14,3 - - 0,0
18.08.2017 00:00:00 15,8 14,6 - - 0,0

tt = temperature
td = dewpoint
tt -20cm = temperature -20cm
tt -100cm = temperature -100cm
rr = precipitation

Next stations